Freeport, IL

4:16 PM CST on February 19, 2017 (GMT -0600)
Albertus

Weather History for KFEP - May, 2014

Change the Weather History Date:

Thursday, May 29, 2014

  Actual Average Record
Temperature  
Mean Temperature 65 °F -  
Max Temperature 78 °F 76 °F 94 °F (1991)
Min Temperature 52 °F 54 °F 34 °F (1984)
Growing Degree Days 15 (Base 50)    
Moisture  
Dew Point 56 °F    
Average Humidity 75    
Maximum Humidity 88    
Minimum Humidity 51    
Precipitation  
Precipitation 0.00 in - - ()
Sea Level Pressure  
Sea Level Pressure 30.11 in    
Wind  
Wind Speed 8 mph (ENE)    
Max Wind Speed 14 mph    
Max Gust Speed 17 mph    
Visibility 9 miles    
Events      
Averages and records for this station are not official NWS values.
T = Trace of Precipitation, MM = Missing Value Source: NWS Daily Summary

Daily Weather History Graph

Daily Weather History Graph

Search for Another Location

Airport or City:

Trip Planner

Search our weather history database for the weather conditions in past years. The results will help you decide how hot, cold, wet, or windy it might be!

Date:

Astronomy

May. 29, 2014 Rise Set
Actual Time 5:26 AM CDT 8:25 PM CDT
Civil Twilight 4:52 AM CDT 8:59 PM CDT
Nautical Twilight 4:09 AM CDT 9:42 PM CDT
Astronomical Twilight 3:19 AM CDT 10:32 PM CDT
Moon 6:20 AM CDT (5/29) 9:15 PM CDT (5/29)
Length of Visible Light 16h 07m
Length of Day
14h 59m
New Moon, 1% of the Moon is Illuminated
May 29
New Moon
Jun 5
First Quarter
Jun 12
Full
Jun 19
Last Quarter
Jun 27
New

Hourly Weather History & Observations

Time (CDT) Temp. Dew Point Humidity Pressure Visibility Wind Dir Wind Speed Gust Speed Precip Events Conditions
12:15 AM 55.8 °F 48.2 °F 76% 30.08 in 10.0 mi ENE 5.8 mph - N/A   Clear
12:35 AM 55.8 °F 47.8 °F 75% 30.09 in 10.0 mi ENE 6.9 mph - N/A   Clear
12:55 AM 55.8 °F 47.5 °F 74% 30.09 in 10.0 mi ENE 5.8 mph - N/A   Clear
1:15 AM 55.8 °F 47.7 °F 74% 30.08 in 10.0 mi ENE 5.8 mph - N/A   Clear
1:35 AM 55.8 °F 48.2 °F 76% 30.08 in 10.0 mi ENE 6.9 mph - N/A   Clear
1:55 AM 54.3 °F 47.8 °F 79% 30.08 in 10.0 mi East 5.8 mph - N/A   Clear
2:15 AM 53.2 °F 47.3 °F 80% 30.08 in 10.0 mi NE 5.8 mph - N/A   Clear
2:35 AM 53.2 °F 47.5 °F 81% 30.07 in 10.0 mi East 5.8 mph - N/A   Clear
2:55 AM 53.2 °F 48.2 °F 83% 30.07 in 10.0 mi ENE 4.6 mph - N/A   Clear
3:15 AM 53.2 °F 48.2 °F 83% 30.07 in 10.0 mi ENE 5.8 mph - N/A   Clear
3:35 AM 52.5 °F 47.8 °F 84% 30.08 in 10.0 mi NNE 6.9 mph - N/A   Clear
3:55 AM 53.6 °F 48.2 °F 82% 30.08 in 10.0 mi NNE 6.9 mph - N/A   Clear
4:15 AM 53.2 °F 48.0 °F 82% 30.08 in 10.0 mi NNE 6.9 mph - N/A   Scattered Clouds
4:35 AM 55.8 °F 50.0 °F 81% 30.08 in 10.0 mi NE 6.9 mph - N/A   Overcast
4:55 AM 55.8 °F 50.0 °F 81% 30.08 in 10.0 mi NE 8.1 mph - N/A   Overcast
5:15 AM 55.8 °F 50.2 °F 82% 30.08 in 10.0 mi NE 8.1 mph - N/A   Overcast
5:35 AM 55.8 °F 50.4 °F 82% 30.09 in 10.0 mi ENE 9.2 mph - N/A   Overcast
5:55 AM 55.8 °F 50.5 °F 83% 30.09 in 10.0 mi ENE 5.8 mph - N/A   Overcast
6:15 AM 55.8 °F 50.9 °F 84% 30.10 in 10.0 mi NE 4.6 mph - N/A   Overcast
6:35 AM 55.8 °F 50.9 °F 84% 30.11 in 10.0 mi NE 5.8 mph - N/A   Overcast
6:55 AM 55.8 °F 50.9 °F 84% 30.11 in 10.0 mi NE 5.8 mph - N/A   Overcast
7:15 AM 55.8 °F 51.1 °F 84% 30.12 in 10.0 mi ENE 8.1 mph - N/A   Overcast
7:35 AM 55.9 °F 51.3 °F 84% 30.12 in 10.0 mi ENE 8.1 mph - N/A   Overcast
7:55 AM 57.9 °F 53.4 °F 85% 30.13 in 10.0 mi ENE 6.9 mph - N/A   Overcast
8:15 AM 58.3 °F 53.8 °F 85% 30.13 in 10.0 mi ENE 10.4 mph - N/A   Overcast
8:35 AM 59.7 °F 55.6 °F 86% 30.13 in 7.0 mi ENE 11.5 mph - N/A   Mostly Cloudy
8:55 AM 60.8 °F 56.5 °F 86% 30.14 in 7.0 mi ENE 11.5 mph - N/A   Mostly Cloudy
9:15 AM 62.4 °F 57.9 °F 85% 30.14 in 5.0 mi ENE 10.4 mph - N/A   Overcast
9:35 AM 62.4 °F 58.3 °F 86% 30.15 in 5.0 mi NE 10.4 mph - N/A   Overcast
9:55 AM 63.5 °F 59.0 °F 85% 30.15 in 5.0 mi ENE 10.4 mph - N/A   Haze
10:15 AM 63.9 °F 59.5 °F 86% 30.15 in 5.0 mi ENE 8.1 mph - N/A   Overcast
10:35 AM 65.1 °F 61.0 °F 86% 30.15 in 4.0 mi East 10.4 mph - N/A   Overcast
10:55 AM 67.5 °F 62.8 °F 85% 30.14 in 4.0 mi East 6.9 mph - N/A   Mostly Cloudy
11:15 AM 71.1 °F 65.5 °F 82% 30.14 in 5.0 mi East 8.1 mph - N/A   Haze
11:35 AM 71.1 °F 64.4 °F 79% 30.14 in 7.0 mi ENE 8.1 mph - N/A   Clear
11:55 AM 72.3 °F 64.8 °F 77% 30.14 in 7.0 mi East 9.2 mph - N/A   Clear
12:15 PM 72.1 °F 64.2 °F 76% 30.13 in 7.0 mi East 11.5 mph - N/A   Scattered Clouds
12:35 PM 74.8 °F 66.6 °F 75% 30.12 in 7.0 mi East 10.4 mph - N/A   Scattered Clouds
12:55 PM 75.2 °F 66.2 °F 73% 30.11 in 10.0 mi East 6.9 mph - N/A   Scattered Clouds
1:15 PM 76.1 °F 66.2 °F 71% 30.11 in 10.0 mi East 8.1 mph - N/A   Mostly Cloudy
1:35 PM 76.1 °F 65.1 °F 69% 30.11 in 10.0 mi East 9.2 mph - N/A   Scattered Clouds
1:55 PM 76.1 °F 65.5 °F 70% 30.10 in 10.0 mi East 9.2 mph - N/A   Scattered Clouds
2:15 PM 76.6 °F 65.3 °F 68% 30.10 in 10.0 mi ENE 11.5 mph 17.3 mph N/A   Scattered Clouds
2:35 PM 76.1 °F 65.5 °F 70% 30.10 in 10.0 mi ENE 9.2 mph - N/A   Mostly Cloudy
2:55 PM 76.1 °F 64.2 °F 67% 30.09 in 10.0 mi East 9.2 mph - N/A   Mostly Cloudy
3:15 PM 76.1 °F 64.2 °F 67% 30.09 in 10.0 mi East 8.1 mph - N/A   Scattered Clouds
3:35 PM 78.6 °F 65.7 °F 64% 30.08 in 10.0 mi NE 9.2 mph - N/A   Mostly Cloudy
3:55 PM 76.3 °F 64.2 °F 66% 30.08 in 10.0 mi East 9.2 mph - N/A   Mostly Cloudy
4:15 PM 76.3 °F 64.2 °F 66% 30.08 in 10.0 mi ENE 8.1 mph - N/A   Scattered Clouds
4:35 PM 76.1 °F 63.3 °F 64% 30.08 in 10.0 mi NE 5.8 mph 17.3 mph N/A   Scattered Clouds
4:55 PM 76.1 °F 63.1 °F 64% 30.08 in 10.0 mi ENE 6.9 mph - N/A   Scattered Clouds
5:15 PM 77.2 °F 63.0 °F 61% 30.09 in 10.0 mi East 6.9 mph 16.1 mph N/A   Scattered Clouds
5:35 PM 78.3 °F 64.0 °F 61% 30.08 in 10.0 mi ENE 8.1 mph - N/A   Scattered Clouds
5:55 PM 76.1 °F 62.2 °F 62% 30.08 in 10.0 mi ENE 10.4 mph - N/A   Scattered Clouds
6:15 PM 76.1 °F 61.5 °F 60% 30.09 in 10.0 mi ENE 11.5 mph - N/A   Clear
6:35 PM 76.1 °F 59.5 °F 56% 30.09 in 10.0 mi ENE 12.7 mph 16.1 mph N/A   Clear
6:55 PM 76.1 °F 57.9 °F 53% 30.09 in 10.0 mi East 10.4 mph - N/A   Clear
7:15 PM 76.1 °F 56.8 °F 51% 30.10 in 10.0 mi ENE 11.5 mph - N/A   Clear
7:35 PM 73.4 °F 56.1 °F 55% 30.10 in 10.0 mi ENE 13.8 mph - N/A   Clear
7:55 PM 71.1 °F 54.7 °F 56% 30.11 in 10.0 mi East 12.7 mph - N/A   Clear
8:15 PM 71.1 °F 55.6 °F 58% 30.11 in 10.0 mi ENE 10.4 mph - N/A   Clear
8:35 PM 69.8 °F 55.4 °F 60% 30.12 in 10.0 mi East 10.4 mph - N/A   Clear
8:55 PM 68.5 °F 56.5 °F 65% 30.13 in 10.0 mi ENE 10.4 mph - N/A   Clear
9:15 PM 65.1 °F 54.3 °F 68% 30.13 in 10.0 mi ENE 8.1 mph - N/A   Clear
9:35 PM 63.5 °F 54.1 °F 72% 30.13 in 10.0 mi East 8.1 mph - N/A   Clear
9:55 PM 61.7 °F 53.8 °F 75% 30.14 in 10.0 mi East 6.9 mph - N/A   Clear
10:15 PM 60.8 °F 54.1 °F 79% 30.14 in 10.0 mi East 5.8 mph - N/A   Clear
10:35 PM 59.2 °F 53.1 °F 80% 30.14 in 10.0 mi ESE 5.8 mph - N/A   Clear
10:55 PM 59.0 °F 53.6 °F 82% 30.14 in 10.0 mi East 5.8 mph - N/A   Clear
11:15 PM 58.3 °F 53.1 °F 83% 30.14 in 10.0 mi East 4.6 mph - N/A   Clear
11:35 PM 55.8 °F 51.4 °F 85% 30.15 in 10.0 mi SE 3.5 mph - N/A   Clear
11:55 PM 55.8 °F 52.2 °F 88% 30.15 in 10.0 mi ESE 4.6 mph - N/A   Clear